Regional Weather Roundup
Issued by NWS

Home | Current Version | Previous Version | Text Only | Print | Product List | Glossary Off
Versions: 1 2 3 4 5 6 7 8 9 10 11 12 13 14 15 16 17 18 19 20 21 22 23 24 25 26 27

000
ASUS45 KSLC 201710
RWRUT

UTAH REGIONAL WEATHER ROUNDUP
NATIONAL WEATHER SERVICE SALT LAKE CITY UT
1000 AM MST SAT JAN 20 2018

UTZ001>011-023>025-201800-

NORTHERN UTAH

CITY           SKY/WX    TMP DP  RH WIND       PRES   REMARKS
BRIGHAM CITY   MOSUNNY   30  27  87 S3        29.93R
HILL AFB       MIX PCPN  28  28  99 NW7       29.89R WCI  21
LOGAN          FOG       29  25  85 CALM      29.92S VSB<1/4
OGDEN          CLOUDY    30  27  88 NW9       29.89S WCI  22
SALT LAKE CITY LGT SNOW  31  29  92 N14       29.90R FOG     WCI  21
TOOELE VALLEY  LGT SNOW  30  30 100 NE6       29.94R WCI  24
WENDOVER       CLOUDY    30  25  81 S5        29.96R WCI  25
HEBER CITY     LGT SNOW  30  23  74 NE8G17    29.81R WCI  23
WEST JORDAN    CLOUDY    28  28 100 NW18      29.90R WCI  15

$$

UTZ011>015-024>027-201800-

CENTRAL/NORTHEAST UTAH

CITY           SKY/WX    TMP DP  RH WIND       PRES   REMARKS
PROVO AIRPORT  LGT SNOW  30  27  88 NW17      29.87R FOG     WCI  18
MOAB/CANYONLAN CLOUDY    46  33  60 SW3       29.75R
DELTA          CLOUDY    28  28 100 N10       29.87R WCI  19
PRICE          LGT SNOW  33  33 100 E7        29.73S FOG     WCI  27
ROOSEVELT      LGT SNOW  32  28  86 N3        29.78R VSB 1
VERNAL         LGT SNOW  33  31  92 NW10      29.77R FOG     WCI  25

$$

UTZ013>016-019>022-027-201800-

SOUTHERN UTAH

CITY           SKY/WX    TMP DP  RH WIND       PRES   REMARKS
BRYCE CANYON   LGT SNOW  31  31 100 S17       29.73R VSB 1   WCI  19
CEDAR CITY     HVY SNOW  26  26 100 N8        29.84R VSB 1/4 WCI  18
MILFORD        SNOW      28  27  96 N12       29.86R VSB 1/2 WCI  18
ST GEORGE      LGT RAIN  39  35  86 NE25      29.83R WCI  28
HANKSVILLE     CLOUDY    45  32  61 SW5       29.77S
BLANDING         N/A     41  21  45 SE10G17   29.90S

$$

REGIONAL REPORTS     COLORADO/ARIZONA

CITY           SKY/WX    TMP DP  RH WIND       PRES   REMARKS
CRAIG, CO      LGT SNOW  32  27  81 CALM      29.81R
GRAND JUNCTION CLOUDY    51  27  39 SE20      29.75F
RIFLE, CO      CLOUDY    38  34  85 W6        29.80R WCI  33
MONTROSE, CO   CLOUDY    53  21  28 S18G28    29.83R
CORTEZ, CO     CLOUDY    47  17  30 SE24      29.88F
COLORADO CITY  DRIZZLE   37  37 100 SW7       29.82R WCI  32
PAGE, AZ       CLOUDY    53  32  44 SW9G16    29.74S
GRAND CANYON   LGT SNOW  32  32 100 S13G20    29.84S VSB 3/4 WCI  22
KINGMAN, AZ    SUNNY     48  24  39 SW20      29.85R
FLAGSTAFF, AZ  LGT SNOW  32  30  92 S15G21    29.85R VSB 1   WCI  22

$$

REGIONAL REPORTS    NEVADA/IDAHO/WYOMING

CITY           SKY/WX    TMP DP  RH WIND       PRES   REMARKS
LAS VEGAS, NV  PTSUNNY   49  32  52 SE8       29.86R
ELY, NY        CLOUDY    22  20  92 N17       29.87R WCI   8
ELKO, NV       MOSUNNY   26  21  81 S6        29.98R WCI  19
POCATELLO, ID  PTSUNNY   29  24  82 SW8       29.99R WCI  21
BURLEY, ID     PTSUNNY   31  22  69 W10       29.98S WCI  22
FORT BRIDGER,  LGT SNOW  24  24 100 N7        29.84R WCI  16
EVANSTON, WY   FOG       20  19  96 N15       29.81F VSB 1/2 WCI   6
ROCK SPRINGS,  LGT SNOW  25  22  88 W5        29.81S WCI  19

$$




USA.gov is the U.S. government's official web portal to all federal, state and local government web resources and services.